This demonstration page uses our WeatherBlox Daily Observations layout. Learn more.

Left ArrowRight Arrow

Hourly Observations for July 7, 2021

Temp ( °F °C ) Dew Point ( °F °C ) Humidity (%) Winds ( mph kmh ) Pressure ( in mb ) Visibility ( mi km ) Precip ( " mm )
12:15 am 00:15 Clear 68 19.8 66 18.9 95 95 N 3 6 29.99 1016 10 16 N/A
12:35 am 00:35 Clear 67 19.5 66 18.7 95 95 N N/A 30.01 1016 10 16 N/A
12:55 am 00:55 Clear 67 19.2 65 18.5 96 96 N 5 7 30.01 1016 10 16 N/A
1:15 am 01:15 Mostly Cloudy 67 19.3 65 18.6 96 96 N 5 7 30.01 1016 10 16 N/A
1:35 am 01:35 Cloudy 67 19.5 66 18.8 96 96 N 3 6 30.01 1016 7 11 N/A
1:55 am 01:55 Cloudy 67 19.5 66 18.9 96 96 N N/A 30.02 1016 7 11 N/A
2:15 am 02:15 Cloudy 67 19.6 66 18.8 95 95 N N/A 30.00 1016 10 16 N/A
2:35 am 02:35 Mostly Cloudy 67 19.5 65 18.5 94 94 N 3 6 30.00 1016 10 16 N/A
2:55 am 02:55 Cloudy 66 19.1 65 18.5 96 96 N 3 6 30.00 1016 7 11 N/A
3:15 am 03:15 Cloudy 67 19.4 65 18.6 95 95 N 5 7 30.00 1016 7 11 N/A
3:35 am 03:35 Cloudy 67 19.5 65 18.6 95 95 N 5 7 30.00 1016 7 11 N/A
3:55 am 03:55 Cloudy 67 19.5 65 18.6 95 95 N 5 7 29.99 1015 7 11 N/A
4:15 am 04:15 Cloudy 67 19.5 65 18.6 95 95 N 6 9 29.99 1015 7 11 N/A
4:35 am 04:35 Cloudy 67 19.5 66 18.7 95 95 N 5 7 29.99 1015 7 11 N/A
4:55 am 04:55 Cloudy 67 19.5 65 18.6 95 95 N 3 6 30.00 1016 7 11 N/A
5:15 am 05:15 Cloudy 67 19.5 66 18.7 95 95 N N/A 29.99 1015 7 11 N/A
5:35 am 05:35 Cloudy 67 19.5 66 18.7 95 95 N 3 6 29.99 1015 7 11 N/A
5:55 am 05:55 Cloudy 67 19.5 65 18.6 95 95 N 3 6 29.99 1015 7 11 N/A
6:15 am 06:15 Cloudy 67 19.5 65 18.5 94 94 N 8 13 30.00 1016 7 11 N/A
6:35 am 06:35 Cloudy 67 19.3 65 18.5 95 95 N 8 13 30.01 1016 10 16 N/A
6:55 am 06:55 Cloudy 67 19.3 65 18.3 94 94 N 6 9 30.02 1017 10 16 N/A
7:15 am 07:15 Cloudy 67 19.5 65 18.5 94 94 N 6 9 30.02 1016 7 11 N/A
7:35 am 07:35 Cloudy 67 19.5 65 18.3 93 93 N 6 9 30.02 1016 10 16 N/A
7:55 am 07:55 Cloudy 67 19.6 65 18.4 93 93 N 7 11 30.02 1016 7 11 N/A
8:15 am 08:15 Cloudy 68 19.9 65 18.2 90 90 N 8 13 30.01 1016 10 16 N/A
8:35 am 08:35 Cloudy 68 20.1 65 18.1 88 88 N N/A 30.02 1017 10 16 N/A
8:55 am 08:55 Cloudy 68 20.2 64 17.6 85 85 N N/A 30.02 1017 10 16 N/A
9:15 am 09:15 Cloudy 69 20.3 64 17.7 85 85 N 7 11 30.02 1017 10 16 N/A
9:35 am 09:35 Cloudy 68 19.9 64 17.6 87 87 ENE 9 15 30.03 1017 10 16 N/A
9:55 am 09:55 Cloudy 68 20 64 17.6 86 86 NE 8 13 30.02 1017 10 16 N/A
10:15 am 10:15 Cloudy 69 20.6 62 16.9 79 79 NNE 6 9 30.02 1016 10 16 N/A
10:35 am 10:35 Cloudy 69 20.8 62 16.8 78 78 N 5 7 30.01 1016 10 16 N/A
10:55 am 10:55 Cloudy 71 21.5 62 16.5 73 73 N 5 7 30.01 1016 10 16 N/A
11:15 am 11:15 Cloudy 71 21.5 62 16.5 73 73 N 3 6 30.01 1016 10 16 N/A
11:35 am 11:35 Cloudy 73 22.6 62 16.7 69 69 ENE 8 13 30.00 1016 10 16 N/A
11:55 am 11:55 Cloudy 73 22.5 62 16.8 70 70 ENE 9 15 30.00 1016 10 16 N/A
12:15 pm 12:15 Cloudy 72 22.3 62 16.5 70 70 N N/A 30.00 1016 10 16 N/A
12:35 pm 12:35 Mostly Cloudy 73 23 62 16.6 67 67 NNE 3 6 30.00 1016 10 16 N/A
12:55 pm 12:55 Cloudy 74 23.6 62 16.8 66 66 NE 5 7 29.99 1016 10 16 N/A
1:15 pm 13:15 Mostly Cloudy 74 23.4 62 16.7 66 66 NNE 6 9 29.98 1015 10 16 N/A
1:35 pm 13:35 Mostly Cloudy 74 23.6 63 17.4 68 68 E 8 13 29.98 1015 10 16 N/A
1:55 pm 13:55 Mostly Cloudy 74 23.5 62 16.8 66 66 N N/A 29.98 1015 10 16 N/A
2:15 pm 14:15 Mostly Cloudy 75 23.8 63 17 66 66 NNE 5 7 29.97 1015 10 16 N/A
2:35 pm 14:35 Mostly Cloudy 76 24.3 63 17.2 65 65 NNE 5 7 29.96 1014 10 16 N/A
2:55 pm 14:55 Partly Cloudy 76 24.4 62 16.5 61 61 ENE 3 6 29.95 1014 10 16 N/A
3:15 pm 15:15 Partly Cloudy 76 24.6 62 16.9 62 62 N N/A 29.94 1014 10 16 N/A
3:35 pm 15:35 Partly Cloudy 77 25.2 64 17.6 63 63 NE 6 9 29.94 1014 10 16 N/A
3:55 pm 15:55 Partly Cloudy 78 25.5 64 17.9 63 63 E 5 7 29.93 1013 10 16 N/A
4:15 pm 16:15 Partly Cloudy 78 25.5 64 17.5 61 61 E 5 7 29.93 1013 10 16 N/A
4:35 pm 16:35 Sunny 78 25.6 63 17.1 59 59 N N/A 29.92 1013 10 16 N/A
4:55 pm 16:55 Sunny 78 25.8 65 18.1 63 63 SE 3 6 29.91 1013 10 16 N/A
5:15 pm 17:15 Sunny 78 25.7 63 17 59 59 N N/A 29.91 1013 10 16 N/A
5:35 pm 17:35 Sunny 78 25.8 63 17.1 59 59 N N/A 29.90 1013 10 16 N/A
5:55 pm 17:55 Sunny 79 26.1 63 17.3 58 58 E 7 11 29.89 1012 10 16 N/A
6:15 pm 18:15 Sunny 79 26.1 62 16.9 57 57 ESE 3 6 29.88 1012 10 16 N/A
6:35 pm 18:35 Sunny 79 26.1 63 17.2 58 58 SSE 6 9 29.88 1012 10 16 N/A
6:55 pm 18:55 Sunny 79 26 64 17.7 60 60 SSE 8 13 29.88 1012 10 16 N/A
7:15 pm 19:15 Sunny 78 25.7 63 17.2 59 59 ESE 3 6 29.87 1012 10 16 N/A
7:35 pm 19:35 Sunny 78 25.6 64 17.8 62 62 SE 5 7 29.87 1012 10 16 N/A
7:55 pm 19:55 Sunny 77 25.1 64 18 65 65 SE 7 11 29.89 1012 10 16 N/A
8:15 pm 20:15 Sunny 76 24.5 64 18 67 67 SE 9 15 29.89 1012 10 16 N/A
8:35 pm 20:35 Sunny 75 24 65 18.3 71 71 ESE 8 13 29.89 1012 10 16 N/A
8:55 pm 20:55 Sunny 74 23.1 65 18.3 74 74 SE 9 15 29.90 1012 10 16 N/A
9:15 pm 21:15 Clear 73 22.7 64 18 75 75 SE 8 13 29.89 1012 10 16 N/A
9:35 pm 21:35 Clear 72 22.3 65 18.3 78 78 SE 8 13 29.90 1013 10 16 N/A
9:55 pm 21:55 Clear 71 21.7 65 18.5 82 82 SSE 7 11 29.92 1013 10 16 N/A
10:15 pm 22:15 Clear 69 20.3 65 18.3 88 88 SE 6 9 29.93 1014 10 16 N/A
10:35 pm 22:35 Clear 69 20.5 65 18.1 86 86 SSE 5 7 29.94 1014 10 16 N/A
10:55 pm 22:55 Clear 69 20.5 64 18 86 86 SSE 8 13 29.93 1013 10 16 N/A
11:15 pm 23:15 Clear 69 20.5 64 17.7 84 84 SE 7 11 29.93 1013 10 16 N/A
11:35 pm 23:35 Clear 69 20.7 64 17.6 83 83 ESE 8 13 29.92 1013 10 16 N/A
11:55 pm 23:55 Clear 69 20.4 63 17.4 83 83 SE 8 13 29.92 1013 10 16 N/A

Powered by AerisWeather